Telfer, Australia

7:42 PM AWST on August 19, 2017 (GMT +0800)
Telfer

Weather History for YTEF - March, 2013

Change the Weather History Date:

Sunday, March 17, 2013

  Actual Average Record
Temperature  
Mean Temperature 93 °F -  
Max Temperature 108 °F - - ()
Min Temperature 78 °F - - ()
Cooling Degree Days 28    
Growing Degree Days 43 (Base 50)    
Moisture  
Dew Point 51 °F    
Average Humidity 24    
Maximum Humidity 65    
Minimum Humidity 5    
Precipitation  
Precipitation 0.00 in - - ()
Sea Level Pressure  
Sea Level Pressure 29.85 in    
Wind  
Wind Speed 9 mph ()    
Max Wind Speed 18 mph    
Max Gust Speed -    
T = Trace of Precipitation, MM = Missing Value Source: Averaged Metar Reports

Daily Weather History Graph

Daily Weather History Graph

Search for Another Location

Airport or City:

Trip Planner

Search our weather history database for the weather conditions in past years. The results will help you decide how hot, cold, wet, or windy it might be!

Date:

Astronomy

Mar. 17, 2013 Rise Set
Actual Time 5:53 AM AWST 6:04 PM AWST
Civil Twilight 5:31 AM AWST 6:27 PM AWST
Nautical Twilight 5:05 AM AWST 6:53 PM AWST
Astronomical Twilight 4:39 AM AWST 7:19 PM AWST
Moon 10:27 AM AWST (3/17) 9:44 PM AWST (3/17)
Length of Visible Light 12h 55m
Length of Day
12h 11m
Waxing Crescent, 27% of the Moon is Illuminated
Mar 17
Waxing Crescent
Mar 20
First Quarter
Mar 27
Full
Apr 3
Last Quarter
Apr 10
New

Hourly Weather History & Observations

Time (AWST) Temp. Heat Index Dew Point Humidity Pressure Visibility Wind Dir Wind Speed Gust Speed Precip Events Conditions
12:00 AM 88 °F - 64 °F 35% 29.82 in - WSW 10.4 mph - -  
12:00 AM 87.8 °F 89.4 °F 64.4 °F 46% 29.89 in - SW 10.4 mph - N/A   Unknown
1:00 AM 84.2 °F 86.6 °F 66.2 °F 55% 29.86 in - West 9.2 mph - N/A   Unknown
2:00 AM 84 °F - 65 °F 44% 29.81 in - West 4.6 mph - -  
2:00 AM 84.2 °F 86.6 °F 66.2 °F 55% 29.86 in - West 4.6 mph - N/A   Unknown
3:00 AM 84 °F - 62 °F 38% 29.81 in - SSW 6.9 mph - -  
3:00 AM 84.2 °F 85.0 °F 62.6 °F 48% 29.86 in - SSW 6.9 mph - N/A   Unknown
4:00 AM 78.8 °F - 66.2 °F 65% 29.86 in - NW 6.9 mph - N/A   Unknown
5:00 AM 80 °F - 58 °F 36% 29.83 in - SSE 6.9 mph - -  
5:00 AM 80.6 °F 80.8 °F 57.2 °F 45% 29.89 in - SSE 6.9 mph - N/A   Unknown
6:00 AM 79 °F - 57 °F 36% 29.85 in - SE 9.2 mph - -  
7:00 AM 84.2 °F 84.4 °F 60.8 °F 45% 29.92 in - SE 9.2 mph - N/A   Unknown
8:00 AM 92 °F - 52 °F 17% 29.88 in - East 12.7 mph - -  
8:00 AM 91.4 °F - 51.8 °F 26% 29.95 in - East 12.7 mph - N/A   Unknown
9:00 AM 96 °F - 51 °F 13% 29.89 in - East 17.3 mph - -  
10:00 AM 100.4 °F - 44.6 °F 15% 29.95 in - ENE 18.4 mph - N/A   Unknown
11:00 AM 103 °F - 42 °F 6% 29.86 in - ENE 18.4 mph - -  
11:00 AM 102.2 °F - 42.8 °F 13% 29.92 in - ENE 18.4 mph - N/A   Unknown
12:00 PM 105 °F - 42 °F 6% 29.83 in - ENE 16.1 mph - -  
12:00 PM 105.8 °F - 42.8 °F 12% 29.89 in - ENE 16.1 mph - N/A   Unknown
1:00 PM 107.6 °F - 41.0 °F 10% 29.86 in - NNE 13.8 mph - N/A   Unknown
2:00 PM 106 °F - 38 °F 5% 29.78 in - ENE 9.2 mph - -  
2:00 PM 105.8 °F - 37.4 °F 10% 29.83 in - ENE 9.2 mph - N/A   Unknown
3:00 PM 107 °F - 41 °F 5% 29.77 in - ESE 11.5 mph - -  
3:00 PM 107.6 °F - 41.0 °F 10% 29.83 in - ESE 11.5 mph - N/A   Unknown
4:00 PM 105.8 °F - 42.8 °F 12% 29.80 in - East 9.2 mph - N/A   Unknown
5:00 PM 104 °F - 43 °F 7% 29.75 in - East 8.1 mph - -  
5:00 PM 104.0 °F - 42.8 °F 12% 29.80 in - East 8.1 mph - N/A   Unknown
6:00 PM 98 °F - 50 °F 12% 29.77 in - ESE 6.9 mph - -  
6:00 PM 98.6 °F - 50.0 °F 19% 29.83 in - ESE 6.9 mph - N/A   Unknown
7:00 PM 93.2 °F - 51.8 °F 24% 29.83 in - SE 8.1 mph - N/A   Unknown
8:00 PM 92 °F - 50 °F 15% 29.81 in - SE 8.1 mph - -  
8:00 PM 91.4 °F - 50.0 °F 24% 29.86 in - SE 8.1 mph - N/A   Unknown
9:00 PM 91 °F - 47 °F 13% 29.81 in - SSE 8.1 mph - -  
9:00 PM 91.4 °F - 46.4 °F 21% 29.86 in - SSE 8.1 mph - N/A   Unknown
10:00 PM 89.6 °F - 48.2 °F 24% 29.86 in - SSE 10.4 mph - N/A   Unknown
11:00 PM 90 °F - 47 °F 14% 29.80 in - SSE 9.2 mph - -  
11:00 PM 89.6 °F - 48.2 °F 24% 29.86 in - SSE 9.2 mph - N/A   Unknown